This is the latest recevied weather packets stored in our database for station/object DM3DP. If no packets are shown the sender has not sent any weather packets the latest 10 day(s).
| Time | Temp. | Humidity | Pressure | Rain* | Wind** | Luminosity | Snow |
|---|---|---|---|---|---|---|---|
| 1777787487 | 14.44° C | 84% | 1010.4 hPa | 0 mm | - | 235 W/m² | - |
| 1777787156 | 14.44° C | 84% | 1010.4 hPa | 0 mm | - | 84 W/m² | - |
| 1777786826 | 15° C | 82% | 1010.4 hPa | 0 mm | - | 38 W/m² | - |
| 1777786496 | 15.56° C | 84% | 1010.4 hPa | 0 mm | - | 35 W/m² | - |
| 1777786166 | 14.44° C | 84% | 1010.4 hPa | 0 mm | - | 62 W/m² | - |
| 1777785837 | 14.44° C | 84% | 1010.4 hPa | 0 mm | - | 267 W/m² | - |
| 1777785506 | 12.78° C | 89% | 1010.4 hPa | 0 mm | - | 249 W/m² | - |
| 1777785177 | 11.67° C | 91% | 1010.4 hPa | 0 mm | - | 204 W/m² | - |
| 1777784847 | 11.67° C | 91% | 1010.4 hPa | 0 mm | - | 117 W/m² | - |
| 1777784516 | 11.67° C | 91% | 1010.4 hPa | 0 mm | - | 50 W/m² | - |
| 1777784186 | 11.67° C | 91% | 1010.4 hPa | 0 mm | - | 34 W/m² | - |
| 1777783856 | 11.67° C | 91% | 1010.4 hPa | 0 mm | - | 27 W/m² | - |
| 1777783527 | 11.67° C | 91% | 1010.4 hPa | 0 mm | - | 17 W/m² | - |
| 1777783194 | 11.67° C | 91% | 1010.4 hPa | 0 mm | - | 13 W/m² | - |
| 1777782864 | 11.67° C | 91% | 1010.4 hPa | 0 mm | - | 11 W/m² | - |
| 1777782534 | 12.22° C | 91% | 1010.4 hPa | 0 mm | - | 9 W/m² | - |
| 1777782204 | 12.22° C | 91% | 1010.4 hPa | 0 mm | - | 7 W/m² | - |
| 1777781875 | 12.22° C | 91% | 1010.4 hPa | 0 mm | - | 5 W/m² | - |
| 1777781545 | 12.78° C | 91% | 1010.4 hPa | 0 mm | - | 3 W/m² | - |
| 1777781214 | 12.78° C | 91% | 1010.3 hPa | 0 mm | - | 2 W/m² | - |
| 1777780884 | 12.78° C | 91% | 1010.4 hPa | 0 mm | - | 1 W/m² | - |
| 1777780554 | 12.78° C | 91% | 1010.5 hPa | 0 mm | - | 1 W/m² | - |
| 1777780225 | 12.78° C | 91% | 1010.5 hPa | 0 mm | - | 0 W/m² | - |
| 1777779894 | 12.78° C | 91% | 1010.5 hPa | 0 mm | - | 0 W/m² | - |
| 1777779565 | 13.33° C | 91% | 1010.5 hPa | 0 mm | - | 0 W/m² | - |
* Rain latest hour (hover to see other rain measurements)
** Current wind speed in m/s (hover to see current wind gust speed)